Theta_e
318 319 317 318 319 318 319 320 320 321 322 328 335 338 327 337 335 339 342 344 342 340 339 342 343 342 341 339 335 334 329 324 315 312 316 319 318 320 325 327 329 333 333 334 331 328 326 318 314
319 315 315 319 318 318 319 319 318 319 329 337 340 341 341 345 341 342 343 344 340 339 338 342 342 342 341 337 336 331 326 316 311 316 318 318 319 322 325 328 331 333 333 333 331 328 321 315 315
315 316 319 320 319 317 319 319 319 326 329 334 335 340 343 344 338 339 342 343 340 337 337 341 340 340 339 336 333 328 320 317 316 319 319 320 322 325 329 332 334 333 332 333 331 323 316 315 314
318 319 318 315 317 317 318 320 325 327 329 332 334 342 338 332 332 325 339 343 341 336 335 337 339 339 337 333 329 325 318 315 318 321 323 323 324 326 328 329 332 332 333 333 328 316 316 315 314
316 318 318 319 317 317 317 319 326 328 334 334 336 339 343 339 339 335 337 342 340 334 335 333 336 334 332 329 326 322 319 322 325 324 327 325 324 325 324 324 324 323 324 322 316 316 316 315 314
319 318 318 318 317 316 320 325 327 332 334 335 336 340 342 334 335 336 340 341 339 338 337 332 332 331 328 327 325 320 319 322 327 327 328 324 324 324 321 317 316 316 317 317 316 316 316 315 314
318 319 319 317 318 324 327 329 331 332 333 336 337 339 340 333 330 334 337 339 338 337 337 332 330 330 331 328 324 323 327 329 328 328 327 322 322 320 318 316 315 315 316 316 316 316 316 315 314
318 318 317 318 322 326 328 330 331 333 337 335 336 338 340 332 329 331 334 335 336 336 334 332 330 330 329 328 327 327 327 329 327 326 324 321 321 318 317 317 316 316 316 316 316 317 316 314 314
317 318 318 319 320 322 326 329 332 332 334 336 338 340 335 329 328 330 328 330 331 331 332 330 329 327 327 324 325 327 326 326 323 322 322 320 321 322 324 322 318 317 317 317 317 317 315 314 314
318 320 318 319 319 320 322 328 331 332 335 337 335 332 330 330 330 330 328 325 325 325 325 328 326 324 320 320 318 321 326 326 324 323 319 321 321 324 324 320 319 319 319 318 317 315 316 318 317
319 320 319 319 320 321 323 328 330 331 332 335 338 333 330 330 330 327 325 325 322 322 322 321 321 317 318 318 321 323 326 325 323 319 324 324 323 322 320 320 320 319 319 317 316 317 319 318 317
319 319 319 319 319 322 327 328 330 333 336 336 334 331 331 330 329 326 322 321 319 320 319 318 318 317 317 320 321 321 324 325 324 324 323 323 321 324 323 322 322 321 321 319 320 319 318 317 315
319 320 320 322 322 324 328 329 330 334 335 333 331 330 329 329 326 326 322 320 318 318 317 317 316 313 312 312 313 314 314 322 321 319 318 319 320 325 324 324 323 322 322 321 320 318 317 315 314
320 320 323 323 325 328 329 330 331 333 332 332 332 331 329 328 325 321 320 317 317 316 316 315 315 314 315 314 313 315 317 316 316 318 320 321 323 326 325 324 323 322 322 321 320 318 315 314 313
320 322 323 324 326 327 328 327 332 332 332 332 328 326 326 326 323 322 320 316 315 315 315 315 314 316 316 314 315 316 318 318 319 316 322 324 324 326 326 325 323 322 321 320 318 316 314 313 310
320 322 326 324 325 325 325 329 331 330 331 330 328 328 326 327 327 323 322 317 315 315 315 314 314 313 315 316 319 319 320 321 320 321 326 327 327 327 326 324 323 322 320 319 317 315 313 311 309
321 322 325 325 324 326 329 330 331 330 328 326 327 326 324 327 327 327 327 322 319 318 319 317 318 316 319 322 323 320 320 321 319 322 327 328 327 327 326 324 323 321 320 318 316 314 312 310 308
321 321 323 330 326 325 326 326 332 331 329 328 324 323 322 325 327 325 323 324 324 322 320 319 321 322 324 322 323 322 321 323 322 328 328 328 327 325 325 324 322 321 319 317 314 312 310 308 309
321 320 321 324 325 325 325 325 328 332 330 330 329 326 326 326 325 326 323 323 323 323 321 322 324 325 325 325 323 321 321 323 327 327 328 328 326 325 325 324 321 319 317 316 313 312 309 309 309
321 321 320 321 321 321 322 322 323 332 332 331 330 329 327 326 326 326 326 323 323 324 323 322 323 325 327 327 323 321 322 323 325 327 328 328 327 324 324 322 320 318 317 314 313 310 309 311 309
320 321 321 321 322 321 321 321 321 326 331 332 330 329 328 327 327 327 326 326 325 325 326 326 326 327 329 328 325 323 324 326 327 327 327 327 326 323 322 320 319 317 316 314 312 310 310 312 311
320 320 321 321 322 323 322 322 324 323 327 331 332 330 329 329 328 327 328 327 326 326 326 327 328 328 329 329 328 324 325 328 328 328 326 325 323 322 320 318 317 316 315 313 311 309 311 311 311
321 322 321 322 323 323 322 321 323 321 323 325 328 330 329 328 329 328 328 328 328 327 327 327 328 328 329 329 329 327 326 327 327 327 326 324 320 318 317 317 317 315 313 310 309 308 310 308 309
321 323 322 323 323 325 322 323 322 323 321 321 324 327 329 328 328 328 327 328 328 328 329 328 328 328 328 332 330 329 328 327 328 328 325 322 320 318 317 316 314 313 309 308 308 309 308 309 308
322 323 325 325 326 326 323 323 322 324 321 321 321 324 328 328 328 328 328 328 330 330 330 330 329 329 329 331 332 330 329 328 327 327 324 321 320 318 317 314 311 309 307 308 309 309 307 307 304
322 323 326 335 328 325 324 321 321 322 321 321 321 322 323 328 328 328 327 329 330 331 332 332 331 331 330 332 331 329 321 323 323 327 324 322 321 318 314 312 309 307 307 307 308 304 306 303 305
323 323 323 325 326 325 323 322 321 320 320 321 321 325 326 324 328 328 327 326 329 330 332 334 333 333 332 332 330 327 323 325 327 327 325 323 319 314 312 311 307 306 307 306 304 305 302 302 302
322 324 324 324 326 328 322 322 322 321 320 320 320 321 324 325 325 326 328 328 328 329 331 334 335 334 333 330 329 325 326 327 327 326 324 321 314 310 309 308 307 306 305 304 304 302 302 301 301
323 325 323 324 325 327 328 323 322 321 321 320 320 320 321 322 326 326 326 326 327 329 330 332 335 335 334 331 330 325 325 325 325 325 324 318 313 310 309 308 307 305 305 304 303 300 299 301 302
322 323 324 329 325 325 326 325 322 321 321 321 320 321 321 322 323 327 328 328 327 328 329 331 333 334 333 333 329 326 327 327 325 324 323 318 314 313 312 308 305 304 305 303 299 297 300 299 299
Wind_Speed
5 7 11 12 8 8 17 18 6 4 8 5 8 7 10 5 3 1 12 4 19 28 26 27 28 32 33 32 33 30 27 25 23 25 26 27 27 27 26 24 23 22 22 22 22 22 23 24 24
9 8 12 9 8 13 12 17 4 12 10 12 1 9 3 9 11 5 5 7 21 25 28 26 31 31 33 33 32 30 27 25 26 27 27 28 28 27 25 23 23 23 23 22 22 22 22 23 23
7 9 10 11 12 14 7 8 3 6 1 7 1 1 6 6 12 10 8 10 23 25 27 27 31 33 32 33 31 29 28 28 29 29 29 29 29 27 25 25 25 26 24 22 20 21 22 22 21
8 13 7 9 16 10 8 7 7 8 3 6 8 8 7 4 0 13 14 14 19 30 28 30 33 33 34 33 31 29 29 30 31 30 30 30 29 27 26 26 26 25 23 21 20 22 21 19 19
13 8 10 13 11 6 5 5 4 10 7 4 6 7 12 4 5 12 17 17 25 36 30 31 33 34 33 31 30 30 31 30 31 32 28 29 29 27 25 25 25 24 23 21 22 21 20 17 17
10 4 12 9 6 3 3 5 7 3 0 3 13 4 9 6 5 7 5 11 15 27 31 34 30 31 31 30 29 30 31 32 31 31 28 30 28 25 24 24 24 23 23 23 22 20 17 16 15
11 9 12 6 1 10 4 5 5 9 2 6 9 4 2 3 4 6 9 10 10 15 28 31 24 25 27 28 30 30 29 32 31 30 30 30 27 25 24 24 24 23 23 22 20 17 15 13 12
8 7 8 4 7 2 8 2 3 5 9 6 6 3 5 3 3 10 12 14 17 21 33 34 29 25 25 25 25 29 30 31 31 28 27 28 24 23 23 22 22 21 21 20 17 15 12 11 10
7 10 4 1 4 7 4 4 5 1 4 3 10 12 11 13 9 10 13 14 19 22 32 37 34 30 28 29 23 24 28 30 30 28 24 24 19 17 16 17 19 19 18 16 14 12 10 9 9
10 10 4 6 7 9 6 7 8 4 4 5 7 10 11 11 8 10 10 12 11 20 23 36 36 35 33 28 29 26 23 21 25 23 25 18 17 14 13 18 17 16 15 14 12 11 9 4 6
4 10 6 5 8 10 11 4 1 4 5 15 9 8 7 8 8 12 12 11 16 20 23 29 38 34 35 31 28 27 23 19 22 22 11 19 15 16 15 16 15 15 13 12 11 6 3 5 5
8 5 6 9 7 10 6 5 2 6 5 10 10 10 10 9 8 11 13 14 17 22 25 27 25 36 29 29 27 25 21 17 20 15 17 19 18 13 12 14 14 13 11 11 8 6 6 6 5
8 8 8 7 5 5 3 3 2 8 11 11 11 7 6 8 12 14 16 15 20 20 25 26 26 32 29 29 24 25 20 11 16 18 15 16 12 12 12 11 12 11 10 10 8 7 6 4 4
5 7 4 1 2 3 7 5 9 11 11 11 10 9 3 9 15 17 16 16 16 19 23 28 29 29 28 29 29 21 20 15 15 13 11 10 12 13 12 12 12 10 10 8 7 7 6 4 2
9 11 10 2 3 6 6 12 11 13 12 11 14 12 9 5 16 16 18 20 23 27 27 30 27 24 26 27 24 23 20 18 13 11 13 14 13 14 12 12 11 11 9 9 8 8 6 4 2
13 13 15 2 8 6 16 12 16 14 10 10 15 17 13 12 17 17 21 23 25 24 26 28 28 35 31 34 22 15 13 10 14 20 16 17 15 14 12 12 12 11 11 10 10 9 6 4 3
11 6 14 3 11 7 10 14 17 15 9 11 10 10 11 9 11 17 23 23 27 24 25 29 26 26 21 13 11 10 11 14 21 21 15 17 15 14 13 11 11 12 10 10 10 8 6 4 3
10 8 3 9 15 9 10 8 13 14 14 11 11 13 12 11 14 16 20 27 27 26 31 31 27 25 20 19 17 15 16 16 19 14 17 14 14 14 13 11 11 13 11 10 10 8 5 4 2
9 6 4 6 7 9 6 12 6 13 12 14 14 13 16 16 18 21 24 24 25 29 33 29 24 23 21 18 18 17 17 18 16 17 17 16 14 14 14 13 13 13 12 12 11 9 8 6 2
12 11 11 2 4 7 10 12 11 16 15 14 14 13 15 15 17 23 26 28 28 29 29 29 26 23 22 20 19 18 19 21 19 16 13 14 15 15 16 14 15 15 14 13 12 11 8 5 4
15 15 8 7 4 10 11 14 9 14 15 13 14 16 15 16 18 20 26 30 30 30 31 29 28 25 23 20 19 18 18 14 16 18 17 17 18 17 17 16 15 15 15 15 15 11 9 6 6
16 14 5 7 9 5 10 3 15 14 14 16 16 16 17 17 18 19 23 29 33 33 31 30 28 26 25 23 21 21 21 18 19 19 17 17 17 17 17 16 15 16 16 15 13 12 9 6 6
9 5 7 9 10 5 12 8 11 8 13 14 17 19 18 17 19 20 22 29 32 32 33 32 30 28 26 29 25 22 21 19 19 19 17 19 16 18 18 17 18 17 16 14 13 12 10 10 7
11 7 12 10 11 8 12 9 9 9 10 15 19 18 20 20 20 20 25 29 29 31 32 32 31 30 28 24 23 20 17 20 15 15 18 20 18 19 21 21 20 18 20 16 15 13 10 7 10
10 13 11 10 8 9 5 4 10 2 5 2 5 13 21 20 21 20 21 22 27 30 30 30 31 31 30 26 23 31 28 22 19 20 22 20 22 22 23 25 26 24 21 16 16 14 13 11 12
17 17 10 5 7 5 4 6 6 3 7 4 8 9 11 22 21 21 22 25 27 28 30 30 30 30 31 27 31 30 25 34 32 27 24 23 24 23 29 29 27 23 19 18 17 15 10 10 12
14 17 16 9 7 7 6 7 8 6 5 4 2 4 8 12 16 22 22 27 28 29 30 32 30 30 31 27 33 33 31 30 27 25 23 25 26 29 31 29 28 23 21 23 19 15 14 13 13
13 10 11 8 7 11 14 11 2 7 5 4 4 2 3 2 8 11 14 23 29 28 28 29 30 31 30 30 27 30 18 23 24 23 26 24 22 24 25 28 29 25 25 19 17 13 11 12 12
12 13 9 7 11 6 10 5 4 3 4 3 4 3 1 3 3 4 7 13 16 21 26 26 26 27 30 30 29 21 19 21 22 22 21 23 19 22 22 24 23 24 19 19 16 13 11 13 8
12 21 18 9 13 7 8 12 13 9 8 4 9 4 1 1 0 4 6 8 10 13 16 19 22 25 26 31 29 28 21 18 20 21 21 21 21 21 23 21 22 21 19 20 18 14 14 9 4
Wind_Direction
261 252 255 255 244 227 256 233 244 350 235 211 330 319 237 63 221 254 160 49 137 142 152 156 164 167 164 160 160 157 153 148 144 143 142 137 132 130 129 126 125 121 119 118 113 106 101 98 95
274 260 243 270 252 257 228 240 120 247 353 38 51 292 245 90 37 73 102 177 146 148 154 158 163 166 164 161 160 157 155 151 149 144 140 137 134 131 128 124 123 123 123 121 117 111 105 99 95
269 258 269 244 237 260 16 6 261 54 33 287 292 305 15 63 37 5 359 167 146 154 154 158 158 164 164 161 158 155 154 152 147 144 141 137 134 130 125 121 120 121 122 122 119 114 107 100 94
256 224 232 255 268 245 308 34 10 289 145 256 259 114 108 71 341 16 300 185 166 159 152 164 160 165 164 160 156 154 154 153 147 144 142 140 135 130 125 124 124 123 120 121 118 113 107 99 93
242 261 264 242 275 311 311 319 360 302 44 350 268 227 107 57 25 160 203 210 164 157 160 165 166 163 159 157 156 154 152 149 146 144 143 140 135 131 129 127 127 125 124 122 120 116 110 100 90
259 245 258 271 147 150 231 24 286 300 39 158 254 34 67 32 18 53 131 183 167 152 158 162 162 157 155 155 154 154 154 150 148 144 144 140 137 135 130 126 124 124 124 125 125 120 113 104 92
257 282 290 304 115 41 49 357 322 337 292 130 342 11 87 35 51 90 118 138 157 150 134 149 159 149 146 151 153 153 151 148 147 145 148 142 140 136 130 128 125 123 123 128 129 124 114 105 96
288 269 249 231 283 209 49 46 321 317 56 352 348 224 185 127 68 84 92 117 126 145 133 147 148 148 149 146 150 150 153 150 149 149 146 139 139 136 133 129 128 127 128 130 130 124 114 116 105
256 258 223 60 10 231 79 304 116 49 272 73 4 19 86 120 113 98 94 105 113 125 145 156 152 147 143 140 143 148 153 156 149 143 144 127 131 130 122 137 137 137 132 135 135 131 126 113 87
249 275 31 7 347 334 314 329 38 283 187 161 77 81 108 115 128 100 94 90 91 111 134 150 148 143 142 145 157 151 154 146 137 146 134 138 135 143 138 137 139 141 139 136 139 130 107 130 102
233 279 33 298 27 312 318 284 93 258 234 349 132 130 124 132 115 96 93 97 111 116 135 136 149 142 143 144 147 144 137 146 140 148 145 132 137 141 147 139 140 143 144 136 137 131 111 79 72
263 264 298 314 335 312 314 5 136 40 25 71 120 141 139 131 119 110 106 97 102 113 130 127 122 138 133 137 143 147 139 136 148 149 153 156 155 144 156 154 153 152 155 154 157 136 113 95 72
238 297 324 331 322 271 331 359 351 92 90 99 111 123 132 134 112 107 117 97 113 103 114 123 123 127 122 122 133 128 128 158 163 168 166 160 152 181 183 171 168 166 161 167 152 138 129 114 78
18 296 293 313 232 219 267 182 223 116 120 113 129 135 213 130 119 119 124 115 115 115 116 123 124 132 136 136 136 145 181 152 165 171 174 179 195 189 183 175 168 165 173 168 161 155 154 128 89
281 252 213 205 211 276 327 329 116 136 137 149 109 99 74 153 127 134 133 130 136 134 135 139 141 141 136 144 150 168 168 177 184 195 201 202 206 195 190 180 176 172 175 162 151 162 160 152 120
248 232 232 1 245 186 95 270 132 146 158 134 133 130 146 158 154 155 150 140 148 149 148 149 149 153 164 171 176 179 181 176 194 205 199 205 206 198 192 186 182 179 178 176 174 178 167 173 177
206 235 255 65 206 245 150 250 140 146 149 136 153 148 146 139 147 153 161 157 159 164 161 163 165 182 167 196 180 192 193 207 209 213 201 203 202 201 197 193 192 181 187 184 184 180 185 181 205
235 206 174 165 232 216 275 111 146 158 157 167 154 155 157 169 168 168 159 162 166 165 165 166 168 180 186 190 198 200 204 209 225 210 214 207 203 196 196 201 196 190 195 189 190 181 173 199 215
269 274 270 172 186 248 242 276 195 169 184 176 176 197 179 183 169 167 164 164 167 171 182 188 190 188 190 197 200 204 207 208 217 221 219 207 204 201 203 205 201 199 197 199 188 182 191 191 220
256 248 254 228 148 236 265 269 193 164 194 190 192 197 187 181 173 170 180 178 183 181 187 193 200 204 203 202 203 208 205 208 215 216 215 212 211 208 206 205 206 203 199 193 193 201 196 210 225
235 247 252 272 177 239 269 260 194 164 188 197 199 200 202 192 187 183 186 188 194 197 197 201 207 203 204 209 204 208 213 215 216 224 214 218 214 212 209 207 207 201 205 200 200 199 205 227 231
226 220 303 273 254 268 272 278 293 165 193 192 198 204 199 202 199 191 193 194 196 203 202 205 208 204 204 209 216 207 211 210 219 225 221 218 215 215 208 203 204 206 210 210 204 204 204 208 242
268 254 238 265 263 273 234 251 188 195 190 199 205 200 206 205 201 200 195 200 202 202 203 207 208 211 209 194 219 207 217 218 218 216 220 216 208 209 205 205 205 211 211 208 208 205 203 211 239
247 237 239 243 253 239 240 256 181 211 217 196 189 204 203 205 207 207 204 198 202 204 204 204 209 211 212 198 202 222 223 229 245 216 215 213 217 213 209 206 205 204 207 207 210 209 207 226 249
224 238 233 225 219 231 247 241 272 309 257 268 306 202 198 209 207 207 206 204 200 201 203 204 208 210 207 200 200 205 212 228 239 226 215 213 213 214 212 206 204 208 209 213 213 210 205 224 243
213 239 223 209 229 194 225 241 239 53 11 291 266 272 269 198 209 212 210 208 207 205 202 205 206 206 201 201 193 209 219 230 236 228 217 220 227 219 213 213 218 210 210 213 207 212 216 228 240
239 216 246 301 277 302 270 205 262 199 210 226 296 287 240 239 212 210 218 211 212 210 207 199 207 207 204 199 193 208 220 219 220 220 221 229 223 224 225 221 214 208 214 213 216 213 219 213 231
253 268 229 241 245 238 242 250 270 213 177 169 240 117 121 223 230 235 231 223 216 215 208 200 207 206 199 194 208 214 218 220 221 224 223 213 225 219 220 214 209 203 214 214 210 221 216 210 230
199 237 229 249 239 266 261 247 336 30 293 271 280 181 79 123 167 202 232 232 235 224 205 202 207 209 193 198 205 209 215 216 218 222 224 219 219 208 206 205 204 205 207 202 205 200 209 225 226
222 210 222 229 234 236 266 275 311 276 259 321 254 189 243 282 162 163 178 191 203 205 205 196 201 207 202 185 199 208 215 217 215 215 212 203 203 206 207 203 201 211 210 204 188 194 206 192 223